Weather History for Livingston, MT

Change the Weather History Date:

Thursday, September 19, 2013

  Actual Average Record
Temperature  
Mean Temperature 53 °F 54 °F  
Max Temperature 65 °F 70 °F 91 °F (1956)
Min Temperature 40 °F 38 °F 23 °F (1965)
Degree Days  
Heating Degree Days 12 11  
Month to date heating degree days 41 147  
Since 1 July heating degree days 41 265  
Cooling Degree Days 0 0  
Month to date cooling degree days 56 13  
Year to date cooling degree days 495 228  
Growing Degree Days 4 (Base 50)    
Moisture  
Dew Point 36 °F    
Average Humidity 55    
Maximum Humidity 76    
Minimum Humidity 34    
Precipitation  
Precipitation 0.00 in 0.04 in 0.43 in (1972)
Month to date precipitation 1.49 0.72  
Year to date precipitation 9.01 11.95  
Sea Level Pressure  
Sea Level Pressure 30.10 in    
Wind  
Wind Speed 10 mph (West)    
Max Wind Speed 22 mph    
Max Gust Speed 28 mph    
Visibility 10 miles    
Events      
T = Trace of Precipitation, MM = Missing Value Source: NWS Daily Summary

Daily Weather History Graph

Daily Weather History Graph

Search for Another Location

Airport:

Trip Planner

Search our weather history database for the weather conditions in past years. The results will help you decide how hot, cold, wet, or windy it might be!

Date:

Astronomy

Sep. 19, 2013 Rise Set
Actual Time 7:05 AM MDT 7:24 PM MDT
Civil Twilight 6:35 AM MDT 7:54 PM MDT
Nautical Twilight 6:00 AM MDT 8:29 PM MDT
Astronomical Twilight 5:24 AM MDT 9:05 PM MDT
Moon 7:20 PM MDT (9/19) 7:21 AM MDT (9/19)
Length of Visible Light 13h 18m
Length of Day
12h 19m
Full, 100% of the Moon is Illuminated
Sep 19
Full
Sep 26
Last Quarter
Oct 4
New
Oct 11
First Quarter
Oct 18
Full

Hourly Weather History & Observations

Time (MDT) Temp. Windchill Dew Point Humidity Pressure Visibility Wind Dir Wind Speed Gust Speed Precip Events Conditions
12:53 AM 48.9 °F - 37.0 °F 64% 30.06 in 10.0 mi WNW 9.2 mph - N/A   Overcast
1:53 AM 48.0 °F - 37.9 °F 68% 30.07 in 10.0 mi West 11.5 mph - N/A   Overcast
2:53 AM 48.0 °F - 37.9 °F 68% 30.07 in 10.0 mi WSW 12.7 mph - N/A   Overcast
3:53 AM 48.9 °F - 37.0 °F 64% 30.07 in 10.0 mi West 11.5 mph - N/A   Overcast
4:53 AM 50.0 °F - 37.0 °F 61% 30.07 in 10.0 mi WSW 15.0 mph - N/A   Overcast
5:53 AM 48.9 °F - 37.0 °F 64% 30.09 in 10.0 mi WSW 16.1 mph - N/A   Overcast
6:53 AM 48.9 °F - 36.0 °F 61% 30.10 in 10.0 mi WSW 13.8 mph - N/A   Overcast
7:53 AM 50.0 °F - 36.0 °F 59% 30.14 in 10.0 mi West 8.1 mph - N/A   Overcast
8:53 AM 51.1 °F - 37.0 °F 59% 30.16 in 10.0 mi West 11.5 mph - N/A   Overcast
9:53 AM 55.0 °F - 35.1 °F 47% 30.14 in 10.0 mi West 18.4 mph - N/A   Mostly Cloudy
10:53 AM 59.0 °F - 36.0 °F 42% 30.14 in 10.0 mi WSW 15.0 mph 23.0 mph N/A   Overcast
11:53 AM 57.9 °F - 33.1 °F 39% 30.14 in 10.0 mi WSW 15.0 mph - N/A   Overcast
12:53 PM 61.0 °F - 35.1 °F 38% 30.12 in 10.0 mi WSW 15.0 mph 23.0 mph N/A   Scattered Clouds
1:53 PM 62.1 °F - 34.0 °F 35% 30.11 in 10.0 mi SW 16.1 mph 21.9 mph N/A   Partly Cloudy
2:53 PM 64.9 °F - 35.1 °F 33% 30.09 in 10.0 mi WSW 11.5 mph 17.3 mph N/A   Partly Cloudy
3:53 PM 64.0 °F - 35.1 °F 34% 30.08 in 10.0 mi West 11.5 mph - N/A   Scattered Clouds
4:53 PM 64.0 °F - 35.1 °F 34% 30.07 in 10.0 mi West 8.1 mph - N/A   Clear
5:53 PM 64.0 °F - 35.1 °F 34% 30.06 in 10.0 mi WNW 3.5 mph - N/A   Clear
6:53 PM 61.0 °F - 34.0 °F 36% 30.06 in 10.0 mi North 6.9 mph - N/A   Clear
7:53 PM 50.0 °F - 37.9 °F 63% 30.10 in 10.0 mi Calm Calm - N/A   Clear
8:29 PM 48.2 °F - 37.4 °F 66% 30.13 in 10.0 mi South 6.9 mph - N/A   Partly Cloudy
8:53 PM 48.0 °F - 37.0 °F 66% 30.11 in 10.0 mi Calm Calm - N/A   Clear
9:53 PM 46.0 °F - 36.0 °F 68% 30.11 in 10.0 mi Calm Calm - N/A   Clear
10:53 PM 45.0 °F 41.8 °F 37.0 °F 74% 30.11 in 10.0 mi WNW 5.8 mph - N/A   Clear
11:53 PM 42.1 °F - 36.0 °F 79% 30.11 in 10.0 mi Calm Calm - N/A   Clear